Precipitable_Water
0.55 0.55 0.55 0.55 0.54 0.54 0.52 0.51 0.51 0.52 0.52 0.53 0.53 0.53 0.52 0.51 0.49 0.34 0.32 0.46 0.56 0.65 0.68 0.50 0.47 0.50 0.57 0.47 0.50 0.50 0.26 0.16 0.17 0.17 0.18 0.27 0.24 0.27 0.30 0.26 0.37 0.57 0.60 0.83 1.15
0.57 0.56 0.56 0.55 0.54 0.54 0.53 0.50 0.50 0.51 0.53 0.53 0.52 0.51 0.49 0.50 0.36 0.35 0.58 0.63 0.62 0.65 0.53 0.50 0.38 0.48 0.43 0.43 0.48 0.38 0.23 0.18 0.26 0.21 0.17 0.18 0.19 0.22 0.23 0.28 0.32 0.57 0.79 0.90 1.11
0.58 0.57 0.57 0.56 0.54 0.53 0.52 0.50 0.50 0.51 0.52 0.53 0.53 0.51 0.51 0.49 0.25 0.39 0.57 0.51 0.50 0.47 0.51 0.56 0.53 0.51 0.37 0.42 0.42 0.41 0.20 0.24 0.25 0.24 0.24 0.20 0.20 0.23 0.23 0.22 0.33 0.42 0.69 0.84 0.98
0.58 0.57 0.54 0.53 0.52 0.51 0.51 0.50 0.50 0.51 0.52 0.52 0.53 0.51 0.51 0.40 0.12 0.43 0.48 0.44 0.43 0.43 0.53 0.46 0.45 0.37 0.33 0.29 0.39 0.30 0.29 0.35 0.32 0.33 0.27 0.23 0.23 0.18 0.19 0.19 0.32 0.47 0.66 0.83 0.88
0.60 0.57 0.55 0.53 0.52 0.53 0.52 0.50 0.48 0.49 0.48 0.48 0.49 0.51 0.44 0.26 0.22 0.41 0.38 0.35 0.34 0.33 0.36 0.43 0.43 0.38 0.28 0.33 0.33 0.31 0.27 0.35 0.38 0.36 0.33 0.32 0.24 0.23 0.19 0.21 0.30 0.42 0.66 0.72 0.85
0.60 0.58 0.54 0.53 0.51 0.51 0.49 0.46 0.45 0.42 0.41 0.42 0.46 0.47 0.34 0.17 0.42 0.39 0.32 0.29 0.28 0.27 0.27 0.33 0.36 0.42 0.38 0.34 0.33 0.36 0.38 0.32 0.38 0.38 0.41 0.33 0.28 0.28 0.23 0.27 0.27 0.45 0.61 0.69 0.78
0.58 0.55 0.52 0.50 0.50 0.48 0.47 0.42 0.38 0.37 0.36 0.40 0.41 0.39 0.31 0.29 0.46 0.33 0.31 0.28 0.28 0.28 0.25 0.30 0.36 0.34 0.43 0.37 0.47 0.41 0.31 0.33 0.37 0.41 0.37 0.42 0.28 0.25 0.29 0.33 0.27 0.36 0.60 0.69 0.75
0.55 0.53 0.52 0.50 0.47 0.46 0.45 0.35 0.33 0.33 0.34 0.33 0.37 0.34 0.24 0.43 0.36 0.25 0.25 0.23 0.26 0.29 0.24 0.27 0.33 0.32 0.33 0.43 0.42 0.36 0.36 0.21 0.23 0.29 0.42 0.47 0.18 0.25 0.35 0.32 0.25 0.32 0.50 0.59 0.65
0.53 0.51 0.49 0.46 0.46 0.47 0.40 0.28 0.29 0.30 0.30 0.32 0.26 0.31 0.20 0.27 0.22 0.25 0.23 0.18 0.25 0.19 0.18 0.28 0.24 0.27 0.26 0.24 0.24 0.31 0.22 0.25 0.27 0.36 0.34 0.34 0.19 0.32 0.40 0.36 0.27 0.27 0.37 0.48 0.59
0.51 0.47 0.46 0.44 0.46 0.43 0.33 0.28 0.26 0.26 0.23 0.20 0.25 0.20 0.18 0.15 0.20 0.22 0.21 0.19 0.18 0.17 0.13 0.14 0.13 0.14 0.17 0.22 0.14 0.14 0.18 0.25 0.26 0.34 0.39 0.34 0.24 0.30 0.39 0.41 0.32 0.29 0.30 0.39 0.45
0.47 0.44 0.45 0.44 0.44 0.37 0.27 0.25 0.16 0.15 0.21 0.20 0.22 0.17 0.17 0.20 0.20 0.16 0.19 0.15 0.14 0.11 0.10 0.11 0.11 0.09 0.12 0.14 0.20 0.24 0.21 0.19 0.21 0.31 0.37 0.35 0.30 0.32 0.39 0.39 0.40 0.35 0.30 0.32 0.38
0.49 0.47 0.46 0.42 0.39 0.29 0.25 0.19 0.25 0.26 0.14 0.22 0.24 0.27 0.19 0.21 0.14 0.15 0.20 0.13 0.12 0.09 0.11 0.09 0.06 0.10 0.11 0.14 0.17 0.17 0.18 0.18 0.21 0.24 0.30 0.31 0.29 0.35 0.42 0.39 0.39 0.37 0.38 0.35 0.37
0.49 0.46 0.44 0.38 0.34 0.25 0.24 0.26 0.33 0.32 0.15 0.18 0.18 0.22 0.14 0.17 0.14 0.13 0.16 0.14 0.12 0.11 0.11 0.09 0.07 0.11 0.10 0.08 0.09 0.11 0.16 0.17 0.19 0.22 0.24 0.28 0.25 0.27 0.35 0.43 0.48 0.45 0.39 0.39 0.39
0.47 0.44 0.42 0.36 0.24 0.28 0.21 0.31 0.35 0.31 0.13 0.13 0.14 0.15 0.15 0.17 0.12 0.15 0.17 0.16 0.13 0.11 0.13 0.10 0.10 0.09 0.09 0.09 0.12 0.09 0.14 0.17 0.18 0.18 0.13 0.25 0.15 0.23 0.31 0.33 0.42 0.44 0.43 0.40 0.39
0.45 0.43 0.40 0.35 0.27 0.23 0.27 0.33 0.34 0.28 0.04 0.13 0.13 0.17 0.16 0.15 0.15 0.11 0.17 0.14 0.11 0.11 0.13 0.09 0.10 0.10 0.08 0.11 0.18 0.12 0.16 0.15 0.17 0.16 0.18 0.16 0.16 0.22 0.26 0.24 0.33 0.37 0.40 0.40 0.39
0.44 0.42 0.35 0.29 0.25 0.25 0.30 0.33 0.29 0.09 0.04 0.10 0.10 0.11 0.12 0.14 0.12 0.14 0.13 0.16 0.18 0.13 0.11 0.10 0.13 0.14 0.12 0.16 0.18 0.19 0.18 0.15 0.18 0.17 0.11 0.14 0.16 0.14 0.24 0.29 0.30 0.36 0.40 0.40 0.40
0.43 0.38 0.32 0.30 0.20 0.26 0.27 0.22 0.07 0.04 0.10 0.08 0.09 0.11 0.12 0.12 0.12 0.13 0.11 0.09 0.10 0.09 0.08 0.09 0.09 0.12 0.16 0.13 0.17 0.19 0.14 0.09 0.08 0.10 0.09 0.13 0.15 0.15 0.25 0.22 0.29 0.32 0.38 0.43 0.44
0.39 0.32 0.31 0.28 0.24 0.23 0.16 0.08 0.04 0.08 0.09 0.12 0.10 0.09 0.09 0.13 0.12 0.12 0.10 0.08 0.10 0.12 0.10 0.08 0.05 0.10 0.13 0.15 0.15 0.16 0.15 0.10 0.06 0.09 0.08 0.11 0.12 0.16 0.18 0.26 0.39 0.42 0.41 0.44 0.47
0.34 0.28 0.24 0.26 0.24 0.18 0.10 0.05 0.07 0.10 0.12 0.10 0.10 0.08 0.09 0.11 0.12 0.12 0.10 0.09 0.11 0.14 0.10 0.09 0.07 0.11 0.15 0.18 0.21 0.16 0.14 0.19 0.13 0.14 0.12 0.13 0.15 0.18 0.21 0.21 0.33 0.39 0.45 0.45 0.46
0.28 0.25 0.22 0.26 0.22 0.15 0.09 0.07 0.10 0.13 0.13 0.12 0.08 0.10 0.08 0.10 0.10 0.11 0.11 0.12 0.11 0.16 0.16 0.12 0.07 0.09 0.14 0.20 0.20 0.18 0.21 0.13 0.15 0.10 0.08 0.11 0.12 0.11 0.20 0.21 0.27 0.34 0.37 0.48 0.49
0.26 0.19 0.23 0.25 0.21 0.14 0.08 0.10 0.12 0.15 0.15 0.11 0.10 0.10 0.11 0.11 0.11 0.11 0.11 0.12 0.14 0.15 0.16 0.14 0.12 0.12 0.15 0.15 0.15 0.15 0.15 0.15 0.16 0.14 0.12 0.10 0.13 0.25 0.20 0.23 0.28 0.29 0.36 0.46 0.43
0.24 0.14 0.26 0.24 0.12 0.14 0.11 0.13 0.16 0.13 0.16 0.14 0.14 0.13 0.12 0.12 0.11 0.11 0.10 0.13 0.17 0.17 0.12 0.17 0.15 0.11 0.13 0.17 0.23 0.18 0.17 0.17 0.13 0.13 0.17 0.17 0.17 0.29 0.25 0.25 0.34 0.40 0.40 0.47 0.44
0.20 0.20 0.26 0.23 0.10 0.11 0.14 0.13 0.15 0.14 0.14 0.13 0.13 0.15 0.15 0.12 0.10 0.11 0.11 0.14 0.17 0.17 0.16 0.19 0.12 0.10 0.10 0.13 0.18 0.17 0.19 0.20 0.21 0.19 0.16 0.15 0.17 0.30 0.32 0.28 0.36 0.37 0.46 0.54 0.50
0.21 0.12 0.17 0.19 0.20 0.14 0.13 0.12 0.13 0.17 0.16 0.16 0.14 0.16 0.15 0.11 0.12 0.10 0.10 0.13 0.17 0.17 0.20 0.18 0.14 0.12 0.10 0.12 0.16 0.15 0.17 0.19 0.19 0.16 0.17 0.17 0.19 0.23 0.27 0.34 0.40 0.46 0.50 0.54 0.54
0.21 0.16 0.19 0.12 0.14 0.15 0.16 0.14 0.12 0.12 0.16 0.17 0.14 0.14 0.14 0.10 0.09 0.08 0.10 0.12 0.14 0.17 0.18 0.18 0.12 0.15 0.16 0.18 0.18 0.17 0.17 0.18 0.18 0.19 0.16 0.18 0.20 0.22 0.29 0.36 0.44 0.49 0.50 0.51 0.51
0.18 0.17 0.22 0.18 0.18 0.14 0.14 0.13 0.13 0.14 0.15 0.14 0.13 0.14 0.14 0.12 0.12 0.09 0.12 0.13 0.14 0.15 0.16 0.19 0.14 0.16 0.15 0.18 0.19 0.16 0.18 0.19 0.20 0.20 0.20 0.21 0.21 0.29 0.35 0.43 0.44 0.45 0.49 0.49 0.51
0.32 0.32 0.24 0.17 0.15 0.13 0.12 0.14 0.13 0.15 0.13 0.16 0.16 0.15 0.12 0.13 0.16 0.14 0.15 0.16 0.17 0.16 0.15 0.17 0.16 0.15 0.13 0.17 0.17 0.13 0.16 0.18 0.19 0.21 0.21 0.18 0.23 0.30 0.33 0.40 0.42 0.45 0.48 0.48 0.50
Wind_Speed
19 21 22 23 24 25 27 28 29 29 30 30 31 31 31 32 33 32 28 29 30 33 33 32 32 32 32 32 31 29 31 34 32 27 27 21 26 27 26 28 29 30 28 27 30
22 23 24 25 27 28 29 31 31 32 32 32 32 32 32 33 33 28 30 32 33 33 33 33 31 31 34 34 33 33 35 38 31 32 25 24 26 25 26 29 30 30 28 28 30
23 25 26 27 29 30 31 33 34 35 35 35 34 34 33 32 31 29 32 33 33 32 31 29 30 31 37 35 38 38 45 37 35 35 32 32 27 27 28 29 30 31 31 31 31
25 27 28 29 31 32 34 35 37 37 37 37 36 36 35 33 30 31 35 35 35 34 32 31 33 34 36 40 38 42 46 45 34 38 35 33 31 32 33 31 28 31 34 35 35
27 28 30 31 33 34 36 38 38 39 40 39 38 36 34 33 34 37 40 40 39 37 35 36 37 37 42 38 41 48 48 42 42 45 39 36 39 36 37 33 32 32 35 37 38
28 30 32 34 35 36 38 39 40 41 40 38 36 34 34 36 37 40 42 42 41 39 39 38 39 41 44 47 48 42 44 51 49 46 39 43 43 38 40 38 35 34 37 37 38
31 32 34 36 37 38 40 41 41 40 39 37 36 37 36 38 40 44 44 44 42 42 42 43 43 43 42 43 42 48 52 51 50 44 46 39 47 50 43 35 38 37 38 39 39
33 34 36 37 39 40 40 41 41 40 41 38 37 37 38 39 43 46 46 46 45 42 44 45 46 49 48 47 46 43 44 50 51 52 45 40 53 46 45 44 47 41 40 40 40
34 36 38 40 41 42 42 42 41 37 39 37 39 38 38 43 46 46 46 46 45 45 45 42 43 45 46 49 50 46 49 49 49 45 42 48 55 42 44 44 48 47 44 42 41
35 37 39 41 43 42 44 41 40 36 40 40 38 38 41 45 47 46 47 47 44 45 42 40 37 38 39 40 48 51 52 49 48 43 46 48 58 51 38 43 47 48 46 45 45
37 39 41 42 42 42 44 40 39 38 42 39 40 39 45 47 47 47 47 44 41 38 35 34 33 34 38 39 43 41 43 46 54 50 39 51 55 51 48 47 45 48 49 48 47
39 41 42 42 40 41 42 40 40 41 41 40 40 41 47 48 47 46 45 39 37 34 31 28 28 29 31 35 39 43 45 45 46 48 47 51 54 52 47 52 52 49 47 49 45
40 43 42 41 38 41 41 41 43 41 40 39 40 42 50 47 43 44 41 36 29 27 25 21 25 27 29 31 34 38 39 37 40 39 49 44 54 54 51 52 50 51 51 48 49
41 43 41 41 38 42 41 45 45 40 36 39 41 40 47 44 35 37 33 27 24 23 23 21 22 27 29 27 26 30 34 39 38 36 40 37 46 49 45 49 51 52 52 50 47
42 41 40 41 40 41 45 47 41 38 34 44 43 46 45 35 35 29 29 24 22 22 20 24 29 29 26 20 20 22 27 33 36 37 38 43 37 37 43 48 50 53 54 55 54
42 39 39 39 40 43 46 41 37 37 33 41 46 47 40 36 32 27 26 24 22 23 24 27 24 17 14 15 19 22 20 27 30 31 38 41 38 41 38 35 43 48 52 53 51
40 37 38 40 42 45 44 38 36 34 42 43 47 43 38 32 29 25 27 25 20 24 24 26 15 13 8 17 14 13 14 12 21 24 28 33 36 41 35 46 39 40 50 51 51
38 36 38 40 44 44 40 36 35 38 39 43 42 39 29 31 28 25 27 23 20 19 22 15 22 15 13 13 17 15 9 9 13 13 20 29 33 32 42 36 32 32 37 45 49
36 34 38 41 42 41 37 37 34 37 39 39 39 31 28 30 27 26 24 19 19 17 17 16 15 21 9 18 9 5 3 10 11 13 10 18 25 26 32 37 28 25 27 34 42
34 32 37 41 39 38 37 34 33 35 36 33 30 28 29 29 28 27 21 18 22 14 16 12 14 10 15 12 7 8 4 2 8 6 8 9 17 23 24 31 35 23 22 26 32
32 31 36 39 35 37 35 34 34 34 34 30 27 26 26 28 28 23 19 23 17 21 13 12 3 11 12 8 9 10 4 2 7 8 6 5 9 13 23 26 28 27 18 23 26
32 31 35 37 35 35 36 37 34 32 31 27 25 23 23 31 25 21 20 19 19 17 14 8 5 10 10 7 5 12 7 6 6 6 5 3 2 6 23 25 19 18 18 19 22
31 32 33 36 33 35 36 34 32 31 30 26 24 23 25 27 25 21 20 20 17 14 11 10 6 8 6 6 7 12 14 15 4 6 3 2 2 3 14 17 19 17 13 15 18
32 31 33 33 34 34 35 33 32 30 27 24 24 23 26 25 23 20 19 16 17 13 16 11 5 3 3 7 11 16 20 20 9 3 2 5 6 7 12 16 19 18 13 14 14
32 31 31 33 34 35 33 32 32 32 25 23 21 23 25 23 24 18 19 18 13 12 13 9 5 7 10 6 7 16 18 19 21 15 11 8 10 11 10 16 20 18 14 14 12
31 32 33 33 34 34 33 31 31 29 25 22 20 25 23 19 19 24 21 14 7 12 11 9 5 9 5 5 7 17 19 14 21 22 15 16 16 16 14 19 19 16 15 13 10
33 33 32 33 33 33 32 33 32 31 24 21 21 23 22 20 24 24 16 7 5 8 9 8 8 5 4 7 7 9 20 14 13 21 16 15 12 9 15 19 16 14 12 10 8
Wind_Direction
338 337 335 333 331 328 327 325 323 321 318 315 312 310 307 305 302 298 291 289 287 283 281 274 270 259 256 254 250 249 254 254 251 248 252 251 244 242 241 236 230 230 230 231 216
336 335 332 330 328 326 325 323 321 319 317 314 312 310 308 306 303 294 297 295 292 287 279 270 265 257 255 253 250 248 253 254 252 249 254 250 244 244 238 235 233 233 231 220 213
335 333 331 329 327 325 323 322 320 318 315 313 311 309 308 306 299 294 300 297 294 290 280 267 261 260 256 256 249 250 252 253 254 250 249 250 249 243 240 238 233 229 225 218 216
333 331 330 328 327 325 323 321 320 317 315 312 310 309 307 306 299 297 301 298 294 290 278 271 263 261 260 253 251 255 255 253 256 250 249 247 247 244 239 237 236 232 224 219 215
333 331 330 329 327 326 324 322 320 317 313 309 308 307 305 304 296 298 299 295 291 288 281 274 265 262 259 259 254 254 255 255 253 251 250 249 245 245 242 239 238 232 223 220 218
333 331 330 329 328 326 324 322 320 318 315 310 309 307 306 302 302 300 299 296 291 287 280 275 269 266 267 260 256 259 259 255 253 251 250 247 247 243 240 238 235 229 223 221 217
333 332 331 330 328 327 325 323 321 318 319 312 309 308 305 301 301 303 299 297 292 288 281 275 271 265 266 265 262 261 259 257 252 250 246 245 247 239 238 237 232 228 224 221 221
333 333 331 330 329 328 326 324 322 318 318 314 308 308 305 305 304 303 300 297 294 289 285 278 271 266 261 261 261 259 257 253 252 247 246 239 247 241 237 235 233 229 225 223 222
334 333 332 331 330 328 327 326 323 319 321 318 315 311 309 308 309 305 304 300 296 294 289 282 277 267 263 260 258 251 255 253 254 244 242 236 246 242 238 233 231 228 226 224 223
334 333 332 331 330 329 329 327 326 324 324 318 319 313 314 311 310 307 307 305 299 297 292 287 278 272 266 257 255 256 253 253 249 246 240 239 242 239 240 232 231 228 225 224 223
334 334 333 332 332 332 332 328 330 323 330 323 318 316 316 313 313 313 312 308 304 301 297 289 280 272 268 262 262 258 255 256 251 249 250 243 243 240 237 234 231 228 225 223 223
334 334 333 332 332 334 333 334 330 323 325 325 320 317 319 317 314 317 317 313 310 306 302 294 282 277 277 270 264 260 257 254 253 248 243 245 246 242 241 234 231 227 226 225 223
335 334 334 333 331 333 334 333 329 327 325 324 326 322 325 321 318 320 321 316 312 311 310 298 288 288 286 278 267 260 251 251 251 248 246 248 245 242 236 235 228 226 225 225 223
335 335 335 334 332 333 333 332 329 328 328 329 329 325 327 324 322 323 325 320 318 315 312 306 303 300 290 282 274 261 252 249 249 245 239 230 243 236 230 230 228 226 223 221 220
335 335 335 336 333 334 332 332 331 332 331 329 329 326 328 328 325 329 330 326 317 317 319 307 305 300 291 280 278 268 264 251 243 241 240 234 239 234 230 229 227 226 226 225 225
335 335 336 337 336 334 334 335 336 336 332 331 331 331 332 331 332 328 333 331 320 318 316 314 310 301 291 285 286 286 273 247 236 239 237 229 228 235 228 228 229 229 227 224 224
336 336 338 338 337 337 337 337 338 342 335 333 334 335 334 336 335 335 335 332 331 329 329 324 323 324 298 312 303 289 291 243 223 231 236 225 227 233 234 228 228 227 228 224 221
336 337 338 339 340 340 340 342 346 337 337 335 336 336 339 340 336 334 332 331 334 332 329 335 323 335 326 322 311 297 248 224 226 230 234 222 225 227 224 222 225 226 227 222 220
335 337 341 341 342 344 345 347 343 340 338 339 339 342 342 340 338 336 334 330 331 337 335 327 313 324 320 343 341 323 246 239 239 248 254 229 227 226 220 215 212 215 217 213 213
337 336 341 342 343 347 348 350 344 344 342 343 345 347 342 343 342 340 341 338 335 338 337 326 310 332 334 348 356 344 287 247 223 237 231 239 213 215 203 207 210 209 211 211 211
339 338 341 343 344 348 349 346 344 344 346 346 346 345 344 346 342 342 338 335 346 339 343 337 326 324 342 4 347 14 12 309 249 236 253 220 217 224 219 202 204 207 206 205 209
339 339 340 344 347 346 347 345 344 344 345 344 345 347 348 346 347 347 344 342 341 347 347 358 348 340 335 9 52 10 343 304 241 218 216 226 134 269 213 201 187 189 205 203 198
340 338 339 345 344 345 344 343 343 343 344 345 345 347 349 348 349 345 348 346 356 358 2 356 357 353 12 39 26 7 359 352 204 199 235 318 149 21 166 173 175 162 174 178 186
341 341 339 343 343 345 344 342 342 341 339 342 339 343 347 348 352 343 346 354 354 2 1 10 14 35 3 323 339 9 15 25 51 119 50 75 94 93 132 156 159 159 157 157 161
342 340 340 338 341 342 342 341 340 342 340 341 342 342 346 348 352 353 348 349 353 1 5 21 19 346 335 344 25 24 18 38 46 48 74 88 88 97 137 154 148 146 145 145 150
340 341 339 336 338 341 341 339 339 338 338 337 336 338 342 345 346 339 337 344 346 1 12 18 8 350 44 41 27 40 28 48 47 40 60 90 100 99 123 137 126 129 128 130 140
339 338 338 336 339 341 339 339 336 336 336 332 335 338 339 341 339 334 333 325 323 357 10 13 10 39 55 24 34 52 31 33 54 50 64 77 82 89 118 119 120 120 123 134 147